Regional Weather Roundup
Issued by NWS

Home | Current Version | Previous Version | Graphics & Text | Print | Product List | Glossary Off
Versions: 1 2 3 4 5 6 7 8 9 10 11 12 13 14 15 16 17 18 19 20 21 22 23 24 25 26 27 28 29 30 31 32 33 34 35 36 37 38 39 40 41 42 43 44 45 46 47 48 49 50

000
ASUS43 KMKX 172159
RWRWI

WISCONSIN REGIONAL WEATHER ROUNDUP
NATIONAL WEATHER SERVICE MILWAUKEE/SULLIVAN WI
400 PM CST SUN DEC 17 2017

NOTE: "FAIR" INDICATES FEW OR NO CLOUDS BELOW 12,000 FEET WITH NO
SIGNIFICANT WEATHER AND/OR OBSTRUCTIONS TO VISIBILITY.

WIZ001-002-006>008-014>016-023>028-172300-
NORTHWEST WISCONSIN

CITY           SKY/WX    TMP DP  RH WIND       PRES   REMARKS
SUPERIOR ARPT  MOCLDY    27  21  79 SW5       29.99F WCI  21
ASHLAND        CLOUDY    29  24  82 SW6       29.98F WCI  23
HAYWARD        CLOUDY    28  24  85 S5        29.96F WCI  23
SIREN          CLOUDY    26  25  93 CALM      29.98F FOG
CUMBERLAND     LGT SNOW  28  27  93 CALM      29.96F
RICE LAKE      LGT SNOW  28  27  96 CALM      29.98F
CHETEK         CLOUDY    28  26  92 S3        29.99F
LADYSMITH      LGT SNOW  29  26  90 CALM      29.98F
EAU CLAIRE     NOT AVBL
MENOMONIE      CLOUDY    29  27  92 E3        29.98F FOG
NEW RICHMOND   CLOUDY    27  24  87 CALM      29.98F FOG
OSCEOLA        CLOUDY    27  27 100 CALM      30.01F FOG
$$

WIZ003>005-009-010-017-018-172300-
NORTH CENTRAL WISCONSIN

CITY           SKY/WX    TMP DP  RH WIND       PRES   REMARKS
MANITOWISH WTR LGT SNOW  25  25 100 S3        29.95S
ARBOR VITAE    LGT SNOW  27  25  95 S5        29.95F WCI  21
WOODRUFF       LGT SNOW  27  25  95 S5        29.95F WCI  21
RHINELANDER    CLOUDY    26  25  96 S7        29.96S WCI  18
EAGLE RIVER    LGT SNOW  25  25 100 CALM      29.95S
LAND O LAKES   LGT SNOW  26  25  96 CALM      29.96F
PHILLIPS       MIX PCPN  26  25  98 S3        29.96F
TOMAHAWK       CLOUDY    26  24  93 CALM      29.97F FOG
MEDFORD        CLOUDY    26  24  95 CALM      29.96F FOG
MERRILL        CLOUDY    27  26  96 CALM      29.98F FOG
$$

WIZ029-030-035-036-043>047-172300-
CENTRAL WISCONSIN

CITY           SKY/WX    TMP DP  RH WIND       PRES   REMARKS
WAUSAU         CLOUDY    27  25  92 S3        29.96F
MOSINEE        CLOUDY    27  27 100 E3        29.98F FOG
MARSHFIELD     CLOUDY    28  26  92 NE3       29.95F FOG
STEVENS POINT  CLOUDY    27  27 100 E3        29.99F FOG
WAUPACA        CLOUDY    30  26  85 N3        29.99F FOG
WAUTOMA        NOT AVBL
WISC RAPIDS    CLOUDY    29  26  89 NE5       29.98F FOG     WCI  24
CAMP DOUGLAS   NOT AVBL
$$

WIZ011>013-019>022-031-037>040-048>050-172300-
NORTHEAST WISCONSIN

CITY           SKY/WX    TMP DP  RH WIND       PRES   REMARKS
ANTIGO         FOG       26  26 100 SE3       29.97F VSB 1
SHAWANO        CLOUDY    30  27  88 CALM      30.01F
OCONTO         CLOUDY    31  28  87 CALM      30.03S
STURGEON BAY   CLOUDY    31  28  89 S5        30.03S WCI  26
GREEN BAY      CLOUDY    31  26  82 SE3       30.01F
MANITOWOC      MIX PCPN  32  29  88 CALM      30.00F
APPLETON       CLOUDY    30  27  86 E3        29.97F FOG
CLINTONVILLE   NOT AVBL
OSHKOSH        CLOUDY    30  27  88 E3        29.99F FOG
$$

WIZ032>034-041-042-053>061-172300-
SOUTHWEST WISCONSIN

CITY           SKY/WX    TMP DP  RH WIND       PRES   REMARKS
LA CROSSE      CLOUDY    32  28  85 CALM      29.98S
SPARTA         CLOUDY    31  28  90 CALM      29.98F FOG
VIROQUA        CLOUDY    30  30 100 CALM      29.95S
BOSCOBEL       CLOUDY    35  29  78 NE3       29.99R
PRAIRIE DU CHI CLOUDY    35  29  79 CALM      29.99R HAZE
PLATTEVILLE    CLOUDY    36  32  87 CALM      29.97R
$$

WIZ056-057-062-063-064-067-068-172300-
SOUTH CENTRAL WISCONSIN

CITY           SKY/WX    TMP DP  RH WIND       PRES   REMARKS
REEDSBURG      CLOUDY    32  30  92 CALM      29.97R
BARABOO/DELLS  CLOUDY    32  29  88 NE3       29.96F FOG
LONE ROCK      NOT AVBL
MINERAL POINT  CLOUDY    36  34  93 SE3       29.96R
MADISON        CLOUDY    33  29  85 SE5       29.99R FOG     WCI  29
MIDDLETON      CLOUDY    35  31  87 E3        29.98R
WATERTOWN      CLOUDY    32  32 100 E5        29.96S FOG     WCI  27
MONROE         CLOUDY    34  32  93 E3        29.96R
JANESVILLE     CLOUDY    37  32  81 NE6       29.96R FOG     WCI  33
$$

WIZ051-052-058>065-066-070>072-172300-
SOUTHEAST WISCONSIN

CITY           SKY/WX    TMP DP  RH WIND       PRES   REMARKS
MILWAUKEE      CLOUDY    36  33  89 CALM      29.98F FOG
WAUKESHA       NOT AVBL
MILWAUKEE/TIMM CLOUDY    34  28  80 CALM      29.98F FOG
RACINE         CLOUDY    36  33  89 CALM      29.99F FOG
BURLINGTON     CLOUDY    46  46 100 CALM      29.98R FOG
KENOSHA        CLOUDY    37  31  78 CALM      29.98S HAZE
FOND DU LAC    CLOUDY    31  26  82 CALM      29.99F
SHEBOYGAN      CLOUDY    31  30  96 CALM      29.99F FOG
WEST BEND      CLOUDY    32  32 100 E3        29.98F FOG
JUNEAU         CLOUDY    30  28  93 CALM      29.97F FOG
$$

LSZ147-162-172300-
LAKE SUPERIOR

STATION/POSITION TIME  TEMP    WIND        PRES    WAVE
                       AIR SEA DIR/SP/G            HT/PER
                 (UTC) (F)     (DEG/KT/KT) (MB)    (FT/S)
DEVILS ISLAND    2100   28     220/  5/  7 1016.3F
SAXON HARBOR     2130   30                 1014.9F
$$

LMZ867-665-643>646-172300-
LAKE MICHIGAN

STATION/POSITION TIME  TEMP    WIND        PRES    WAVE
                       AIR SEA DIR/SP/G            HT/PER
                 (UTC) (F)     (DEG/KT/KT) (MB)    (FT/S)
NORTHPORT PIER   2140   32     150/  5/  8 1016.6F
KEWAUNEE LAKESHO 2130   31     190/  4/  5 1015.9R
SHEBOYGAN LAKESH 2100   32     170/  6/  7 1017.1R
PORT WASHINGTON  2140   34      80/  4/  5 1016.6F
MILWAUKEE LAKESH 2130   34      40/  6/  7   N/A
KENOSHA   LAKESH 2100   35      10/  5/  5 1015.6
$$

TC  - TEMPERATURE IN CELSIUS
VSB - VISIBILITY IN STATUTE MILES
WCI - WIND CHILL INDEX
HX  - HEAT INDEX





USA.gov is the U.S. government's official web portal to all federal, state and local government web resources and services.